Date_and_time,latitude,longitude,wind_speed,RelWindDirFrom,WindDirFrom,air_pressure,air_temperature,relative_humidity,Temp,platform_speed_wrt_ground,air_pressure_at_mean_sea_level,platform_orientation
2019-04-07 00:00,50.630445,-96.9807933333333,10.4,12.0,8,987.16,1.7,86,1.75,0.0,1014.83,250.3
2019-04-07 00:00,50.6304433333333,-96.9807933333333,9.5,9.5,8,987.20,1.5,89,1.75,0.0,1014.89,255.8
2019-04-07 00:10,50.6304483333333,-96.9807783333333,9.7,10.9,5,987.22,1.6,88,1.76,0.0,1014.92,255.8
2019-04-07 00:20,50.63045,-96.9807716666667,10.8,13.2,8,987.09,1.9,83,1.76,0.0,1014.77,255.8
2019-04-07 00:30,50.63045,-96.98077,9.5,11.2,8,987.10,1.7,86,1.77,0.0,1014.79,255.8
2019-04-07 00:40,50.630445,-96.980785,8.4,9.7,12,986.96,1.5,91,1.77,0.0,1014.65,255.8
2019-04-07 00:50,50.6304433333333,-96.9807733333333,6.7,8.1,21,986.90,1.1,99,1.78,0.0,1014.62,255.8
2019-04-07 01:00,50.6304466666667,-96.9807816666667,8.0,9.6,35,986.71,1.2,99,1.79,0.0,1014.41,270.0
2019-04-07 01:10,50.6304433333333,-96.9807766666667,8.0,9.6,39,986.56,1.3,99,1.80,0.0,1014.25,270.0
2019-04-07 01:20,50.63044,-96.98077,9.3,10.4,47,986.30,1.4,99,1.80,0.0,1013.95,270.0
2019-04-07 01:30,50.6304416666667,-96.9807666666667,9.3,10.9,47,986.10,1.5,99,1.80,0.0,1013.75,270.0
2019-04-07 01:40,50.630415,-96.9807666666667,9.2,11.1,46,986.06,1.7,99,1.80,0.0,1013.71,270.0
2019-04-07 01:50,50.6304433333333,-96.9807716666667,10.0,11.7,54,985.94,1.9,97,1.81,0.0,1013.57,270.0
2019-04-07 02:00,50.6304466666667,-96.980775,11.2,12.1,54,985.62,2.0,97,1.81,0.0,1013.24,72.3
2019-04-07 02:10,50.6304466666667,-96.9807766666667,10.2,11.5,50,985.35,1.9,99,1.80,0.0,1012.95,72.3
2019-04-07 02:20,50.630445,-96.980775,9.9,11.3,48,985.31,1.9,98,1.80,0.0,1012.92,72.3
2019-04-07 02:30,50.6304466666667,-96.980775,11.8,15.0,56,984.97,2.1,95,1.81,0.0,1012.57,72.3
2019-04-07 02:40,50.6304166666667,-96.98079,12.8,15.5,59,984.70,2.3,90,1.81,0.0,1012.30,72.3
2019-04-07 02:50,50.6304366666667,-96.980785,12.9,14.8,58,984.55,2.4,89,1.82,0.0,1012.14,72.3
2019-04-07 03:00,50.6304333333333,-96.9807733333333,12.0,13.8,61,984.53,2.5,88,1.82,0.0,1012.11,119.2
2019-04-07 03:10,50.63044,-96.98078,11.1,12.6,64,984.51,2.5,89,1.82,0.0,1012.08,119.2
2019-04-07 03:20,50.6304383333333,-96.9807716666667,10.0,11.7,61,984.36,2.4,91,1.82,0.0,1011.92,119.2
2019-04-07 03:30,50.6304566666667,-96.9807783333333,7.8,9.7,50,984.39,2.2,93,1.83,0.0,1011.96,119.2
2019-04-07 03:40,50.6304233333333,-96.9807983333333,7.5,9.2,46,984.40,2.1,94,1.83,0.0,1011.96,119.2
2019-04-07 03:50,50.6304316666667,-96.98077,4.5,7.9,340,984.99,1.9,96,1.83,0.0,1012.57,119.2
2019-04-07 04:00,50.6304383333333,-96.980765,7.8,14.2,280,985.91,2.7,80,1.83,0.0,1013.49,111.5
2019-04-07 04:10,50.6304383333333,-96.9807633333333,5.9,9.9,276,986.42,3.1,76,1.83,0.0,1013.99,111.5
2019-04-07 04:20,50.6304383333333,-96.9807683333333,7.0,9.8,301,986.35,2.7,85,1.82,0.0,1013.93,111.5
2019-04-07 04:30,50.6304383333333,-96.98077,7.2,9.9,360,985.68,2.1,98,1.82,0.0,1013.25,111.5
2019-04-07 04:40,50.6304383333333,-96.9807683333333,9.5,10.9,20,985.10,1.5,100,1.83,0.0,1012.69,111.5
2019-04-07 04:50,50.6304233333333,-96.9807866666667,10.3,12.4,26,984.86,1.2,100,1.83,0.0,1012.45,111.5
2019-04-07 05:00,50.63044,-96.98078,11.2,12.6,23,984.86,1.1,100,1.81,0.0,1012.45,240.8
2019-04-07 05:10,50.6304416666667,-96.9807733333333,12.1,13.6,28,984.55,1.1,101,1.81,0.0,1012.15,240.8
2019-04-07 05:20,50.6304433333333,-96.980775,12.9,15.3,25,984.30,0.9,101,1.82,0.0,1011.91,240.8
2019-04-07 05:30,50.63045,-96.9807916666667,14.2,17.0,36,984.04,0.9,101,1.82,0.0,1011.64,240.8
2019-04-07 05:40,50.6304433333333,-96.980775,12.2,15.7,40,984.40,1.0,101,1.83,0.0,1012.02,240.8
2019-04-07 05:50,50.630445,-96.9807733333333,8.7,11.7,19,985.06,1.0,101,1.80,0.0,1012.65,240.8
2019-04-07 06:00,50.6304466666667,-96.98077,7.7,9.0,2,985.33,0.9,101,1.78,0.0,1012.92,23.5
2019-04-07 06:10,50.6304433333333,-96.98076,9.0,10.4,14,985.07,1.0,101,1.77,0.0,1012.67,23.5
2019-04-07 06:20,50.6304483333333,-96.98078,10.1,11.3,29,984.83,0.9,101,1.76,0.0,1012.46,23.5
2019-04-07 06:30,50.6304483333333,-96.9807783333333,11.0,12.6,41,984.65,0.9,102,1.73,0.0,1012.30,23.5
2019-04-07 06:40,50.6304483333333,-96.9807733333333,11.3,13.3,52,984.43,0.9,102,1.73,0.0,1012.09,23.5
2019-04-07 06:50,50.63045,-96.9807716666667,11.9,14.9,61,984.17,0.9,102,1.71,0.0,1011.82,23.5
2019-04-07 07:00,50.63045,-96.9807716666667,13.3,17.2,67,984.00,1.1,102,1.72,0.0,1011.65,345.5
2019-04-07 07:10,50.63045,-96.98077,13.2,15.3,72,983.91,1.1,103,1.74,0.0,1011.56,345.5
2019-04-07 07:20,50.6304483333333,-96.98077,13.5,16.5,75,983.78,1.2,103,1.73,0.0,1011.42,345.5
2019-04-07 07:30,50.63043,-96.9807583333333,15.1,17.6,79,983.37,1.2,103,1.74,0.0,1010.99,345.5
2019-04-07 07:40,50.6304333333333,-96.98076,15.1,17.3,83,983.12,1.3,103,1.75,0.0,1010.73,345.5
2019-04-07 07:50,50.630425,-96.9807683333333,14.4,17.3,83,982.99,1.4,103,1.73,0.0,1010.60,345.5
2019-04-07 08:00,50.6304233333333,-96.98077,12.4,15.2,83,982.96,1.3,103,1.73,0.0,1010.57,138.8
2019-04-07 08:10,50.63042,-96.9807683333333,11.4,14.4,86,982.80,1.3,103,1.74,0.0,1010.40,138.8
2019-04-07 08:20,50.63042,-96.9807683333333,11.5,14.6,86,982.59,1.4,103,1.75,0.0,1010.19,138.8
2019-04-07 08:30,50.6304216666667,-96.9807683333333,10.6,12.9,88,982.47,1.4,103,1.76,0.0,1010.06,138.8
2019-04-07 08:40,50.6304233333333,-96.9807666666667,10.4,12.8,90,982.29,1.4,104,1.77,0.0,1009.87,138.8
2019-04-07 08:50,50.630425,-96.9807683333333,11.0,13.7,91,982.08,1.5,104,1.78,0.0,1009.65,138.8
2019-04-07 09:00,50.6304266666667,-96.9807683333333,11.0,13.9,93,982.02,1.5,104,1.79,0.0,1009.58,360.0
2019-04-07 09:10,50.63045,-96.98077,12.1,14.9,94,981.88,1.6,104,1.80,0.0,1009.43,360.0
2019-04-07 09:20,50.6304433333333,-96.9807683333333,11.0,13.3,98,981.81,1.6,104,1.80,0.0,1009.36,360.0
2019-04-07 09:30,50.6304416666667,-96.980765,9.3,11.7,104,981.74,1.5,104,1.79,0.0,1009.29,360.0
2019-04-07 09:40,50.6304433333333,-96.980765,8.1,10.3,105,981.65,1.4,104,1.80,0.0,1009.20,360.0
2019-04-07 09:50,50.6304433333333,-96.9807666666667,8.2,10.5,104,981.57,1.5,104,1.80,0.0,1009.12,360.0
2019-04-07 10:00,50.6304433333333,-96.9807666666667,6.4,8.9,113,981.58,1.4,104,1.80,0.0,1009.13,360.0
2019-04-07 10:10,50.6304433333333,-96.9807666666667,3.4,5.9,142,981.47,0.8,104,1.81,0.0,1009.04,360.0
2019-04-07 10:20,50.6304433333333,-96.9807683333333,2.7,4.2,190,981.53,0.6,104,1.78,0.0,1009.11,360.0
2019-04-07 10:30,50.63044,-96.9807816666667,4.6,6.3,161,981.44,0.7,104,1.74,0.0,1009.01,360.0
2019-04-07 10:40,50.6304366666667,-96.9807566666667,5.3,6.8,152,981.39,0.8,104,1.75,0.0,1008.95,360.0
2019-04-07 10:50,50.63044,-96.9807766666667,5.3,7.8,155,981.36,0.9,104,1.76,0.0,1008.91,360.0
2019-04-07 11:00,50.6304433333333,-96.98077,8.1,9.5,121,981.14,1.5,104,1.78,0.0,1008.65,38.0
2019-04-07 11:10,50.6304433333333,-96.9807683333333,4.0,7.9,133,981.33,1.0,104,1.79,0.0,1008.88,38.0
2019-04-07 11:20,50.6304466666667,-96.9807666666667,4.5,6.6,141,981.38,1.0,104,1.77,0.0,1008.94,38.0
2019-04-07 11:30,50.63043,-96.980775,4.2,5.8,160,981.40,0.7,104,1.76,0.0,1008.97,38.0
2019-04-07 11:40,50.63043,-96.9807683333333,3.9,4.9,164,981.50,0.7,104,1.73,0.0,1009.08,38.0
2019-04-07 11:50,50.6304333333333,-96.98077,3.7,4.8,174,981.56,0.8,104,1.73,0.0,1009.13,38.0
2019-04-07 12:00,50.63045,-96.9807633333333,2.9,4.1,183,981.58,1.0,104,1.76,0.0,1009.18,360.0
2019-04-07 12:10,50.6304466666667,-96.9807616666667,2.5,3.8,171,981.52,1.1,104,1.76,0.0,1009.12,360.0
2019-04-07 12:20,50.6304466666667,-96.9807633333333,2.8,3.8,164,981.52,1.0,104,1.77,0.0,1009.11,360.0
2019-04-07 12:30,50.6304466666667,-96.9807633333333,3.2,4.4,162,981.53,1.0,104,1.78,0.0,1009.12,360.0
2019-04-07 12:40,50.6304466666667,-96.9807616666667,2.6,3.5,160,981.48,1.0,104,1.80,0.0,1009.07,360.0
2019-04-07 12:50,50.6304466666667,-96.9807616666667,1.5,2.2,142,981.47,1.0,104,1.81,0.0,1009.02,360.0
2019-04-07 13:00,50.6304466666667,-96.9807616666667,1.4,2.7,130,981.45,1.4,104,1.82,0.0,1009.01,12.6
2019-04-07 13:10,50.6304466666667,-96.9807633333333,1.5,3.0,123,981.41,1.6,104,1.80,0.0,1008.96,12.6
2019-04-07 13:20,50.630445,-96.9807633333333,2.0,2.6,118,981.34,1.7,104,1.81,0.0,1008.90,12.6
2019-04-07 13:30,50.630445,-96.9807633333333,1.6,2.2,132,981.26,1.5,104,1.82,0.0,1008.83,12.6
2019-04-07 13:40,50.630445,-96.9807633333333,1.8,2.5,126,981.21,1.7,104,1.81,0.0,1008.76,12.6
2019-04-07 13:50,50.630445,-96.9807633333333,2.3,2.9,118,981.09,1.7,104,1.81,0.0,1008.63,12.6
2019-04-07 14:00,50.630445,-96.9807633333333,1.9,2.6,110,980.99,1.7,105,1.81,0.0,1008.52,0.0
2019-04-07 14:10,50.630445,-96.980765,1.0,1.6,144,980.94,1.1,105,1.81,0.0,1008.50,0.0
2019-04-07 14:20,50.630445,-96.980765,0.8,1.5,120,980.77,1.8,105,1.80,0.0,1008.28,0.0
2019-04-07 14:30,50.630445,-96.9807666666667,1.0,1.6,51,980.55,1.6,105,1.80,0.0,1008.08,0.0
2019-04-07 14:40,50.630445,-96.9807666666667,1.6,2.0,11,980.45,1.3,105,1.78,0.0,1007.98,0.0
2019-04-07 14:50,50.630445,-96.9807666666667,3.1,4.4,25,980.20,1.2,105,1.78,0.0,1007.72,0.0
2019-04-07 15:00,50.630445,-96.9807666666667,4.0,4.3,45,979.92,1.1,105,1.79,0.0,1007.42,360.0
2019-04-07 15:10,50.630445,-96.9807683333333,2.6,3.7,49,979.88,1.1,105,1.80,0.0,1007.38,360.0
2019-04-07 15:20,50.630445,-96.9807683333333,1.3,1.9,57,979.98,1.2,105,1.80,0.0,1007.48,360.0
2019-04-07 15:30,50.630445,-96.9807683333333,0.2,1.3,53,980.07,1.4,105,1.80,0.0,1007.56,360.0
2019-04-07 15:40,50.6304466666667,-96.9807783333333,1.2,1.6,44,980.00,1.4,105,1.80,0.0,1007.48,360.0
2019-04-07 15:50,50.6304483333333,-96.98077,1.9,2.5,34,979.94,1.4,105,1.81,0.0,1007.42,360.0
2019-04-07 16:00,50.6304466666667,-96.9807666666667,1.6,2.1,34,979.89,1.5,105,1.81,0.0,1007.40,270.0
2019-04-07 16:10,50.63043,-96.980775,1.3,1.8,28,979.87,1.6,105,1.80,0.0,1007.34,270.0
2019-04-07 16:20,50.630425,-96.9807483333333,2.0,2.7,43,979.80,1.6,105,1.80,0.0,1007.27,270.0
2019-04-07 16:30,50.63043,-96.98076,1.2,2.6,97,979.81,1.8,105,1.80,0.0,1007.29,270.0
2019-04-07 16:40,50.6304466666667,-96.9807766666667,1.1,2.0,150,979.88,1.8,105,1.79,0.0,1007.36,270.0
2019-04-07 16:50,50.6304416666667,-96.9807666666667,0.3,1.6,334,979.85,2.2,105,1.80,0.0,1007.32,270.0
2019-04-07 17:00,50.6304433333333,-96.9807666666667,1.0,2.2,124,979.75,2.6,105,1.80,0.0,1007.20,0.0
2019-04-07 17:10,50.6304416666667,-96.9807683333333,1.1,1.9,147,979.79,2.6,105,1.79,0.0,1007.23,0.0
2019-04-07 17:20,50.63044,-96.9807666666667,1.4,2.6,117,979.72,3.0,105,1.79,0.0,1007.13,0.0
2019-04-07 17:30,50.63044,-96.9807666666667,2.1,2.7,87,979.42,3.5,105,1.79,0.0,1006.80,0.0
2019-04-07 17:40,50.6304383333333,-96.9807666666667,1.8,2.4,81,979.35,3.1,105,1.79,0.0,1006.74,0.0
2019-04-07 17:50,50.6304383333333,-96.9807666666667,1.6,2.4,57,979.32,2.3,105,1.79,0.0,1006.75,0.0
2019-04-07 18:00,50.63044,-96.98077,1.9,2.4,51,979.23,1.8,105,1.79,0.0,1006.68,90.0
2019-04-07 18:10,50.63044,-96.98077,1.1,1.9,19,979.41,1.4,105,1.79,0.0,1006.88,90.0
2019-04-07 18:20,50.63044,-96.9807716666667,2.0,4.1,26,979.39,1.4,105,1.78,0.0,1006.85,90.0
2019-04-07 18:30,50.63044,-96.9807716666667,2.7,3.5,40,979.26,1.3,105,1.78,0.0,1006.73,90.0
2019-04-07 18:40,50.63044,-96.9807733333333,2.1,3.1,51,979.19,1.7,105,1.79,0.0,1006.61,90.0
2019-04-07 18:50,50.63044,-96.9807716666667,1.9,2.8,44,979.16,1.6,105,1.79,0.0,1006.56,90.0
2019-04-07 19:00,50.63044,-96.9807716666667,1.3,2.4,46,979.16,1.6,105,1.78,0.0,1006.57,228.3
2019-04-07 19:10,50.63044,-96.9807716666667,1.5,2.9,33,979.19,1.5,105,1.79,0.0,1006.58,228.3
2019-04-07 19:20,50.63044,-96.98077,3.0,6.8,16,979.08,1.4,105,1.80,0.0,1006.45,228.3
2019-04-07 19:30,50.6304433333333,-96.9807766666667,5.9,7.8,12,978.97,1.3,105,1.80,0.0,1006.35,228.3
2019-04-07 19:40,50.63044,-96.9807733333333,6.7,8.1,16,978.71,1.1,105,1.81,0.0,1006.14,228.3
2019-04-07 19:50,50.6304383333333,-96.98077,5.0,5.8,11,978.70,0.8,105,1.83,0.0,1006.18,228.3
2019-04-07 20:00,50.6304383333333,-96.9807733333333,5.0,6.1,5,978.76,0.9,105,1.81,0.0,1006.25,270.0
2019-04-07 20:10,50.63044,-96.9807733333333,2.7,6.1,348,978.91,1.3,105,1.80,0.0,1006.38,270.0
2019-04-07 20:20,50.63045,-96.9807733333333,2.2,3.9,1,979.01,2.3,105,1.80,0.0,1006.44,270.0
2019-04-07 20:30,50.630445,-96.980765,2.9,3.9,8,979.00,2.5,105,1.81,0.0,1006.40,270.0
2019-04-07 20:40,50.6304466666667,-96.980765,2.4,4.2,348,979.15,2.7,105,1.81,0.0,1006.55,270.0
2019-04-07 20:50,50.6304466666667,-96.980765,2.1,4.9,309,979.18,3.2,105,1.81,0.0,1006.55,270.0
2019-04-07 21:00,50.630445,-96.9807633333333,4.1,6.0,282,979.26,3.8,106,1.80,0.0,1006.61,90.0
2019-04-07 21:10,50.6304466666667,-96.9807633333333,4.2,6.4,290,979.25,4.0,106,1.81,0.0,1006.60,90.0
2019-04-07 21:20,50.6304466666667,-96.980765,3.3,5.4,298,979.18,4.3,106,1.80,0.0,1006.52,90.0
2019-04-07 21:30,50.6304466666667,-96.9807633333333,4.9,7.6,310,979.08,4.4,106,1.80,0.0,1006.42,90.0
2019-04-07 21:40,50.6304466666667,-96.980765,4.6,6.3,312,978.98,4.4,106,1.81,0.0,1006.33,90.0
2019-04-07 21:50,50.630445,-96.980765,4.3,6.6,313,979.05,4.5,106,1.82,0.0,1006.40,90.0
2019-04-07 22:00,50.630445,-96.980765,4.3,6.2,324,979.11,4.5,106,1.82,0.0,1006.43,90.0
2019-04-07 22:10,50.630445,-96.980765,5.4,8.2,323,979.13,4.7,106,1.83,0.0,1006.39,90.0
2019-04-07 22:20,50.630445,-96.980765,4.9,8.0,317,979.16,4.8,106,1.83,0.0,1006.41,90.0
2019-04-07 22:30,50.6304466666667,-96.980765,5.3,8.8,307,979.19,5.0,105,1.83,0.0,1006.42,90.0
2019-04-07 22:40,50.6304466666667,-96.980765,5.0,8.1,320,979.19,5.0,104,1.83,0.0,1006.40,90.0
2019-04-07 22:50,50.6304483333333,-96.9807666666667,4.5,7.7,327,979.28,4.9,102,1.82,0.0,1006.46,90.0
2019-04-07 23:00,50.6304483333333,-96.9807666666667,5.0,6.8,345,979.34,4.6,102,1.80,0.0,1006.52,48.3
2019-04-07 23:10,50.6304483333333,-96.9807666666667,5.1,7.0,339,979.30,4.6,102,1.81,0.0,1006.48,48.3
2019-04-07 23:20,50.6304333333333,-96.98079,4.1,6.4,10,979.40,3.9,102,1.82,0.0,1006.60,48.3
2019-04-07 23:30,50.630435,-96.9807783333333,4.6,5.7,22,979.39,2.6,103,1.83,0.0,1006.66,48.3
2019-04-07 23:40,50.6304366666667,-96.9807666666667,4.0,5.6,7,979.50,2.2,104,1.83,0.0,1006.79,48.3
